Wind_Speed
18 18 19 19 19 20 21 23 26 28 32 35 38 40 42 44 46 46 45 43 41 40 38 40 40 42 43 43 43 44 45 47 54 53 49 50 50 48 48 46 45 47 47
15 17 18 19 20 22 24 26 29 32 35 38 40 41 42 42 43 43 41 40 39 38 38 39 38 36 33 33 35 34 36 37 44 48 40 42 45 44 46 46 46 46 44
16 18 19 21 23 26 28 31 33 36 38 40 39 39 40 41 40 39 38 37 37 38 36 32 28 28 26 29 31 32 33 35 36 42 40 34 36 37 38 40 41 45 42
18 20 22 24 27 30 32 34 35 35 36 36 37 38 38 38 37 36 35 35 34 29 28 28 29 32 35 36 39 39 39 40 39 42 44 40 37 35 38 36 36 39 42
18 21 25 28 30 31 31 32 33 33 34 34 35 36 35 34 35 34 33 31 23 22 26 31 34 36 38 41 44 44 45 46 46 45 44 44 38 34 33 33 37 36 40
23 28 28 29 29 30 31 31 32 33 33 34 34 32 31 31 31 32 30 21 21 26 30 29 30 34 37 38 37 36 39 42 45 45 45 43 36 36 29 30 32 35 40
29 28 27 28 28 29 30 31 33 33 33 33 31 28 27 28 29 27 21 20 24 26 25 30 35 36 36 36 34 32 33 35 36 41 44 39 35 33 32 26 26 32 39
28 29 29 29 30 30 31 32 32 33 31 30 27 26 24 26 26 20 19 22 20 19 27 32 31 29 32 34 34 36 37 34 36 34 38 37 30 27 26 26 25 29 35
30 30 30 30 30 31 31 30 30 29 27 25 25 23 22 22 21 17 18 15 18 18 22 29 31 30 30 32 31 32 34 34 24 32 31 34 28 25 25 24 20 25 28
31 31 31 31 31 29 27 27 26 21 19 21 21 22 20 19 18 16 16 18 19 19 19 26 31 36 34 35 34 33 35 30 25 24 29 33 28 27 26 29 21 21 21
28 28 29 29 27 24 23 22 18 16 18 18 20 21 20 18 15 16 15 18 20 17 23 29 33 35 36 37 34 31 32 28 25 21 25 32 33 31 29 30 24 24 18
23 24 26 26 23 19 16 16 19 16 16 17 20 21 19 16 12 13 14 16 17 20 26 32 33 35 32 34 33 29 33 31 24 22 20 21 29 34 25 23 23 26 20
21 22 22 22 21 18 17 16 18 16 16 16 20 18 17 14 13 12 13 13 15 18 23 32 32 36 35 31 30 33 31 33 20 21 27 30 23 23 31 31 30 29 23
20 21 20 21 20 19 16 16 16 18 20 19 20 17 14 13 12 12 12 11 14 16 19 25 32 31 37 28 26 32 27 30 21 22 23 15 11 14 17 20 27 33 25
18 17 18 19 18 17 18 17 17 17 18 19 14 12 10 12 13 16 15 12 18 19 22 27 30 30 29 26 27 34 29 24 15 17 13 18 7 6 3 3 4 12 25
16 16 16 17 17 16 16 15 15 14 17 16 9 9 9 10 11 13 13 14 17 22 25 31 31 29 34 33 35 34 31 21 18 12 11 9 15 10 1 8 12 8 20
13 14 15 14 15 14 14 15 16 16 17 16 15 12 12 13 14 12 11 13 16 17 26 26 26 27 32 34 38 35 35 30 21 11 13 13 11 8 7 9 2 5 17
10 10 11 12 12 13 12 13 13 13 15 17 17 15 13 13 13 13 14 16 20 18 25 22 21 24 26 32 36 33 35 33 24 10 13 11 10 3 9 4 11 15 21
10 10 9 9 10 9 9 11 12 12 14 14 16 17 18 17 17 15 16 20 20 18 21 18 18 18 24 28 29 35 33 28 31 23 13 9 10 4 3 9 11 16 24
9 9 9 9 10 10 10 12 13 13 13 13 13 13 14 14 15 16 18 18 20 20 20 19 18 18 19 22 27 25 36 27 22 26 25 6 3 8 6 10 17 15 18
9 9 10 10 11 11 11 11 11 12 13 14 16 17 16 16 16 15 15 16 17 18 19 21 20 17 16 16 23 28 32 24 34 28 24 20 9 7 5 5 12 18 18
9 10 10 10 11 11 12 12 13 14 15 16 16 18 19 19 20 19 19 18 19 19 19 20 21 18 14 14 17 19 29 26 31 33 26 29 14 7 7 9 14 17 20
9 10 10 11 11 12 13 14 15 15 16 16 16 17 18 19 19 20 21 21 20 20 20 19 20 21 19 13 14 18 19 27 33 32 28 27 16 6 9 11 13 18 25
10 10 11 12 13 14 14 15 15 16 16 17 17 17 18 19 20 20 21 21 22 21 21 22 20 21 21 18 11 14 17 19 23 29 30 24 19 8 8 13 11 8 11
11 11 12 12 12 13 14 15 16 16 16 16 17 17 18 19 20 20 21 22 22 22 22 22 22 20 20 21 18 13 15 16 17 22 28 18 15 5 3 12 4 9 12
11 11 12 12 13 14 14 15 16 16 17 17 18 18 18 19 20 21 22 22 23 23 23 23 22 22 21 19 20 17 13 13 13 16 20 20 18 10 14 15 18 16 18
Wind_Direction
235 235 235 237 240 247 255 262 269 276 281 287 293 295 296 295 296 296 296 296 296 296 295 294 293 289 289 288 284 280 278 277 279 281 281 280 277 274 272 267 264 262 256
242 243 245 250 256 261 266 271 277 282 288 293 295 295 294 294 295 296 298 299 300 300 299 296 294 290 289 286 285 286 284 283 283 286 284 281 279 278 275 271 266 260 261
248 252 257 263 268 273 278 283 286 288 289 290 293 293 293 294 296 298 300 301 302 302 300 297 294 292 291 289 288 286 285 284 284 285 289 284 280 277 276 272 268 263 256
270 271 276 280 283 286 287 287 288 287 287 290 291 292 294 296 297 298 300 302 303 301 298 299 300 298 297 294 290 287 285 284 283 284 286 287 285 282 276 273 267 259 252
280 286 287 288 288 288 288 289 289 288 287 289 291 294 297 298 299 301 303 305 300 297 300 303 304 302 300 296 293 289 284 281 280 279 280 281 286 287 278 269 267 260 249
297 299 293 291 287 284 284 285 286 288 290 293 296 299 300 300 301 302 303 305 307 306 310 309 312 315 310 302 295 293 294 292 290 282 277 278 284 287 282 268 266 262 252
296 295 293 292 289 286 284 284 285 288 290 295 298 298 301 299 298 298 303 308 310 313 317 321 320 325 322 315 307 305 307 304 298 286 279 275 277 287 287 279 267 259 252
293 293 294 293 291 289 286 284 284 286 291 293 294 298 297 293 291 294 299 308 318 325 335 330 331 338 331 322 313 313 313 313 307 297 279 277 270 271 277 278 266 261 251
292 292 292 294 293 290 286 284 283 286 288 291 293 292 289 286 285 291 301 308 325 331 338 349 344 335 334 331 321 321 323 322 301 297 288 273 268 260 269 279 271 268 249
289 290 294 297 296 291 284 282 286 281 284 289 291 291 283 279 282 294 300 316 332 327 321 342 344 344 350 339 332 321 325 323 311 293 281 273 267 260 263 274 282 277 255
290 295 300 304 303 294 285 287 288 287 289 295 298 291 279 275 283 301 307 324 324 329 336 350 349 347 344 339 339 322 324 332 327 299 302 266 256 263 255 258 264 281 256
297 304 312 315 314 304 300 283 285 286 295 301 305 292 277 274 287 292 308 331 334 346 351 355 357 1 351 336 336 335 340 336 336 332 318 303 274 256 261 252 260 271 263
303 306 312 323 322 303 290 281 283 286 303 310 310 296 276 271 288 279 305 317 340 350 359 356 349 348 347 348 343 333 333 336 327 326 320 304 270 272 254 247 247 258 253
302 307 310 313 316 319 293 275 281 289 297 306 308 299 272 258 282 274 280 304 340 354 1 352 344 340 343 345 338 344 336 333 332 327 334 328 278 277 268 256 249 251 230
308 312 317 320 319 315 316 316 310 308 306 310 300 292 266 265 278 268 271 306 340 352 351 349 344 342 345 351 358 354 350 339 333 328 16 28 41 29 90 115 302 270 224
319 319 316 318 319 317 322 318 314 316 318 327 316 313 291 280 288 292 302 332 339 330 337 334 340 350 352 5 359 5 8 345 337 316 337 341 352 319 360 230 339 248 209
319 316 315 321 320 322 318 320 323 323 324 335 341 327 324 307 291 308 303 304 303 322 318 333 343 351 7 10 12 9 6 2 350 358 345 346 342 332 296 230 192 183 178
327 324 329 329 323 328 329 327 327 330 330 329 334 337 331 327 324 307 308 293 309 311 315 321 337 344 1 8 11 8 1 7 8 343 340 313 314 309 243 224 190 167 172
337 336 341 336 335 341 340 333 339 345 344 335 334 338 338 330 325 328 319 314 316 315 307 316 333 343 3 7 7 5 17 13 8 13 351 324 333 357 250 227 201 183 173
349 352 351 350 355 358 353 352 353 348 341 340 343 341 339 338 329 317 315 316 317 318 306 305 314 325 355 1 357 1 5 3 2 1 10 337 263 283 224 215 203 187 189
1 2 3 2 4 4 3 359 355 355 354 350 350 348 348 346 345 344 338 337 329 320 324 328 314 312 327 342 348 348 358 4 17 17 15 11 337 306 134 178 178 173 181
10 9 7 6 7 7 5 3 3 1 358 355 351 348 346 347 347 347 348 347 345 342 342 335 331 328 307 318 330 344 352 4 358 18 13 18 18 36 151 149 171 186 176
11 7 5 3 1 360 2 0 357 354 351 349 347 345 343 342 343 343 345 347 349 348 345 343 340 337 341 325 315 333 346 0 359 14 13 11 22 87 145 150 168 178 178
3 1 359 359 357 355 354 353 350 348 347 345 343 342 340 340 342 344 344 343 343 344 343 344 344 338 336 338 312 314 329 345 355 358 6 2 25 79 80 177 198 157 164
357 356 355 354 352 350 348 346 346 345 344 342 341 340 340 339 338 338 338 338 340 341 341 340 339 340 337 335 335 318 310 323 341 355 353 4 36 94 21 124 120 228 194
352 352 352 350 348 346 343 342 341 341 341 340 340 340 340 339 337 335 334 333 332 333 334 335 335 335 336 333 329 328 320 293 311 330 349 8 37 101 146 182 152 128 157
Height
3086 3088 3090 3091 3092 3092 3092 3092 3091 3090 3089 3086 3085 3083 3079 3076 3071 3067 3063 3059 3055 3052 3049 3043 3041 3034 3030 3027 3023 3019 3016 3013 3002 3002 3005 3005 3005 3005 3006 3009 3010 3011 3012
3084 3085 3087 3088 3088 3088 3088 3087 3085 3084 3081 3079 3076 3074 3070 3065 3061 3055 3052 3048 3045 3041 3037 3033 3028 3024 3021 3017 3013 3010 3006 3004 2997 2990 2997 2995 2992 2992 2991 2993 2995 2996 2999
3081 3082 3082 3082 3081 3081 3080 3079 3078 3075 3073 3070 3068 3065 3060 3056 3050 3046 3042 3039 3035 3031 3026 3022 3019 3014 3013 3010 3006 3003 2999 2995 2992 2984 2982 2986 2982 2980 2978 2978 2980 2982 2986
3078 3078 3077 3077 3076 3075 3073 3071 3069 3067 3065 3063 3059 3055 3050 3045 3040 3037 3034 3031 3027 3023 3019 3015 3011 3007 3003 3000 2996 2993 2989 2985 2983 2977 2972 2971 2971 2973 2968 2966 2966 2969 2972
3075 3073 3071 3070 3069 3068 3066 3064 3062 3060 3058 3055 3051 3046 3040 3036 3032 3029 3027 3024 3020 3017 3013 3008 3003 2998 2993 2987 2981 2978 2975 2971 2968 2966 2964 2960 2961 2961 2960 2957 2953 2956 2959
3068 3067 3065 3063 3062 3061 3059 3057 3055 3052 3049 3044 3040 3036 3032 3028 3025 3021 3018 3017 3014 3009 3007 3002 2995 2989 2983 2977 2971 2966 2962 2957 2953 2951 2949 2947 2949 2945 2948 2947 2946 2947 2947
3063 3061 3059 3056 3054 3052 3050 3048 3045 3043 3039 3035 3032 3029 3025 3021 3017 3015 3013 3012 3009 3005 2999 2993 2987 2982 2974 2967 2961 2958 2954 2948 2941 2937 2934 2938 2938 2939 2935 2936 2935 2934 2936
3057 3054 3051 3048 3046 3043 3041 3039 3036 3034 3031 3028 3025 3022 3019 3015 3012 3011 3009 3007 3004 2999 2993 2987 2980 2974 2968 2959 2952 2948 2944 2939 2934 2928 2924 2926 2928 2929 2928 2926 2926 2925 2927
3050 3047 3044 3041 3038 3035 3032 3030 3028 3026 3024 3022 3019 3016 3014 3009 3007 3006 3004 3002 2999 2995 2991 2983 2974 2968 2962 2956 2947 2940 2933 2928 2924 2920 2917 2917 2920 2920 2921 2919 2919 2915 2919
3043 3041 3038 3034 3030 3027 3024 3022 3020 3019 3018 3016 3013 3010 3007 3004 3002 3001 2999 2997 2994 2991 2987 2979 2972 2963 2956 2950 2941 2932 2925 2920 2913 2911 2909 2909 2910 2911 2913 2913 2913 2911 2912
3037 3034 3030 3026 3022 3019 3016 3015 3014 3013 3012 3009 3007 3003 3000 2999 2999 2996 2995 2993 2990 2985 2979 2973 2966 2958 2950 2943 2935 2928 2921 2913 2908 2904 2902 2900 2901 2902 2904 2906 2907 2907 2906
3031 3028 3024 3020 3016 3013 3012 3011 3009 3008 3007 3004 3001 2997 2995 2995 2995 2993 2992 2988 2985 2979 2974 2967 2961 2954 2947 2939 2932 2925 2918 2909 2903 2899 2896 2895 2893 2894 2897 2899 2900 2901 2901
3025 3022 3019 3015 3012 3009 3008 3006 3005 3003 3002 3000 2997 2993 2991 2992 2991 2990 2989 2987 2982 2977 2972 2966 2960 2954 2947 2939 2930 2921 2913 2906 2900 2895 2891 2886 2884 2885 2886 2888 2891 2893 2896
3021 3017 3014 3011 3008 3005 3003 3002 3001 3000 2997 2995 2993 2990 2988 2989 2988 2987 2986 2984 2980 2975 2971 2967 2961 2953 2944 2937 2930 2920 2910 2902 2897 2893 2886 2878 2878 2879 2879 2880 2883 2887 2890
3016 3013 3010 3008 3005 3003 3001 2998 2997 2995 2994 2992 2989 2987 2985 2985 2984 2983 2981 2979 2975 2971 2967 2963 2959 2953 2945 2936 2928 2918 2909 2901 2896 2892 2887 2883 2880 2879 2878 2879 2880 2879 2882
3011 3009 3007 3005 3003 3000 2998 2996 2994 2992 2990 2987 2984 2983 2981 2981 2980 2978 2976 2974 2972 2969 2965 2961 2957 2949 2941 2931 2924 2916 2908 2902 2896 2891 2890 2885 2883 2881 2880 2877 2874 2877 2879
3009 3007 3005 3003 3000 2998 2996 2993 2992 2989 2986 2983 2981 2980 2978 2977 2976 2974 2973 2971 2969 2968 2965 2960 2955 2948 2940 2934 2926 2917 2910 2901 2895 2891 2889 2887 2884 2882 2882 2879 2879 2878 2883
3008 3005 3003 3001 2998 2997 2994 2992 2990 2987 2984 2981 2979 2977 2976 2974 2972 2971 2969 2968 2966 2964 2961 2958 2953 2948 2942 2935 2929 2921 2913 2905 2898 2892 2890 2888 2886 2883 2883 2883 2884 2886 2890
3006 3005 3003 3000 2998 2997 2993 2991 2988 2986 2984 2981 2978 2975 2974 2971 2969 2967 2966 2963 2961 2960 2957 2954 2951 2947 2943 2937 2931 2924 2915 2908 2901 2895 2889 2887 2885 2885 2885 2885 2887 2889 2894
3006 3004 3002 3000 2998 2996 2994 2990 2988 2986 2984 2981 2978 2976 2974 2971 2969 2966 2964 2961 2958 2955 2953 2950 2948 2945 2942 2938 2933 2925 2919 2911 2905 2898 2889 2887 2885 2883 2884 2886 2887 2890 2895
3006 3004 3002 3000 2998 2997 2994 2992 2990 2987 2984 2981 2978 2975 2973 2971 2967 2964 2961 2958 2955 2952 2949 2947 2944 2942 2941 2938 2933 2927 2920 2913 2906 2897 2890 2886 2882 2881 2882 2882 2888 2892 2896
3006 3004 3002 3000 2998 2997 2995 2993 2990 2987 2984 2981 2978 2975 2972 2969 2966 2963 2960 2956 2953 2950 2947 2944 2941 2938 2937 2935 2932 2928 2922 2915 2909 2901 2894 2889 2885 2884 2886 2886 2890 2894 2898
3006 3005 3003 3001 2999 2997 2994 2992 2989 2986 2984 2981 2978 2975 2972 2969 2966 2962 2958 2955 2952 2949 2946 2943 2940 2936 2934 2932 2930 2927 2924 2918 2911 2905 2899 2893 2889 2888 2889 2891 2894 2897 2900
3007 3005 3003 3001 2998 2996 2994 2991 2989 2986 2983 2980 2977 2974 2971 2968 2964 2961 2957 2954 2951 2948 2945 2941 2938 2935 2932 2930 2928 2926 2923 2921 2916 2911 2906 2900 2895 2894 2894 2896 2898 2898 2903
3006 3004 3003 3001 2999 2996 2993 2991 2988 2985 2983 2980 2977 2973 2970 2966 2962 2959 2956 2953 2949 2946 2943 2941 2937 2935 2932 2928 2926 2925 2922 2920 2918 2915 2910 2905 2901 2901 2900 2901 2901 2902 2905
3006 3004 3002 3000 2998 2996 2993 2990 2987 2984 2981 2978 2975 2971 2968 2965 2962 2958 2954 2951 2947 2944 2941 2939 2936 2933 2930 2928 2925 2923 2922 2920 2918 2917 2914 2910 2905 2904 2904 2904 2904 2906 2910